KB7STN Weather Reports


time (UTC)temp
F
wind
direction
speed
knots
gust
knots
rain 1hr
in
rain 24hr
in
rain mn
in
humidity
%
barometer
mb
20260831231024 60 268 0.9 5.2 0.33 0.33 0.33 81 1021.6
20260831230524 61 268 0.0 3.5 0.33 0.33 0.33 80 1021.4
20260831230024 61 268 0.0 0.0 0.32 0.32 0.32 79 1021.4
20260831225524 62 268 0.0 0.0 0.32 0.32 0.32 76 1021.3
20260831225024 63 268 0.9 2.6 0.32 0.32 0.32 73 1021.5
20260831224524 65 268 2.6 7.8 0.26 0.26 0.26 68 1021.3
20260831224024 67 264 5.2 14.8 0.13 0.13 0.13 59 1020.8
20260831223524 72 274 4.3 12.2 0.05 0.05 0.05 51 1020.3
20260831223024 74 259 3.5 12.2 0.00 0.00 0.00 44 1020.1
20260831222524 74 262 3.5 7.0 0.00 0.00 0.00 42 1019.2
20260831222024 74 221 3.5 7.8 0.00 0.00 0.00 42 1018.7
20260831221524 75 217 3.5 6.1 0.00 0.00 0.00 41 1018.7
20260831221024 75 192 2.6 6.1 0.00 0.00 0.00 43 1018.7
20260831220524 76 215 2.6 6.1 0.00 0.00 0.00 43 1018.5
20260831220024 76 207 3.5 9.6 0.00 0.00 0.00 45 1018.4
20260831215524 77 231 3.5 7.8 0.00 0.00 0.00 45 1018.2
20260831215024 77 225 3.5 7.8 0.00 0.00 0.00 45 1018.2
20260831214524 78 223 3.5 5.2 0.00 0.00 0.00 45 1018.2
20260831214024 78 224 3.5 6.1 0.00 0.00 0.00 44 1018.3
20260831213524 79 205 4.3 11.3 0.00 0.00 0.00 43 1018.4
20260831213024 80 223 3.5 7.8 0.00 0.00 0.00 40 1018.5
20260831212524 80 227 2.6 6.1 0.00 0.00 0.00 36 1018.5
20260831212024 80 223 1.7 6.1 0.00 0.00 0.00 38 1018.6
20260831211524 81 204 1.7 5.2 0.00 0.00 0.00 38 1018.6
20260831211024 80 175 2.6 2.6 0.00 0.00 0.00 38 1018.6
20260831210524 80 186 2.6 5.2 0.00 0.00 0.00 37 1018.6
20260831210024 80 178 2.6 5.2 0.00 0.00 0.00 37 1018.6
20260831205524 80 217 2.6 7.0 0.00 0.00 0.00 37 1018.6
20260831205024 80 153 2.6 7.0 0.00 0.00 0.00 39 1018.6
20260831204524 80 219 3.5 7.0 0.00 0.00 0.00 37 1018.7
20260831204024 80 206 3.5 8.7 0.00 0.00 0.00 39 1018.9
20260831203524 79 155 2.6 6.1 0.00 0.00 0.00 39 1019.1
20260831203024 79 167 2.6 7.8 0.00 0.00 0.00 39 1019.0
20260831202524 80 177 2.6 4.3 0.00 0.00 0.00 38 1019.2
20260831202024 79 184 3.5 10.4 0.00 0.00 0.00 39 1019.2
20260831201524 79 198 2.6 6.1 0.00 0.00 0.00 39 1019.2
20260831201024 79 196 3.5 7.0 0.00 0.00 0.00 39 1019.4
20260831200524 80 165 3.5 7.0 0.00 0.00 0.00 41 1019.3
20260831200024 80 172 3.5 6.1 0.00 0.00 0.00 40 1019.4
20260831195524 80 200 3.5 7.0 0.00 0.00 0.00 40 1019.5
20260831195024 79 171 2.6 6.1 0.00 0.00 0.00 41 1019.7
20260831194524 79 166 3.5 6.1 0.00 0.00 0.00 42 1019.7
20260831194024 79 182 3.5 6.1 0.00 0.00 0.00 41 1019.8
20260831193524 79 182 4.3 7.8 0.00 0.00 0.00 40 1019.9
20260831193024 79 166 4.3 10.4 0.00 0.00 0.00 41 1020.0
20260831192524 79 168 4.3 8.7 0.00 0.00 0.00 39 1020.1
20260831192024 79 184 3.5 7.8 0.00 0.00 0.00 39 1020.2
20260831191524 79 194 3.5 7.0 0.00 0.00 0.00 40 1020.2
20260831191024 80 165 3.5 7.0 0.00 0.00 0.00 39 1020.2
20260831190524 80 181 3.5 9.6 0.00 0.00 0.00 39 1020.3
20260831190024 80 180 2.6 7.8 0.00 0.00 0.00 38 1020.4
20260831185524 81 192 1.7 6.1 0.00 0.00 0.00 38 1020.4
20260831185024 81 228 1.7 6.1 0.00 0.00 0.00 40 1020.5
20260831184524 80 200 2.6 6.1 0.00 0.00 0.00 39 1020.6
20260831184024 80 224 1.7 5.2 0.00 0.00 0.00 39 1020.7
20260831183524 79 229 2.6 6.1 0.00 0.00 0.00 39 1020.8
20260831183024 79 234 2.6 6.1 0.00 0.00 0.00 40 1020.8
20260831182524 79 232 2.6 7.0 0.00 0.00 0.00 40 1020.9
20260831182024 79 175 1.7 4.3 0.00 0.00 0.00 41 1020.9
20260831181524 79 200 2.6 5.2 0.00 0.00 0.00 42 1021.2
20260831181024 79 164 2.6 6.1 0.00 0.00 0.00 42 1021.3
20260831180524 78 194 1.7 4.3 0.00 0.00 0.00 42 1021.2
20260831180024 77 197 1.7 5.2 0.00 0.00 0.00 43 1021.3
20260831175524 77 198 1.7 4.3 0.00 0.00 0.00 42 1021.3
20260831175024 78 200 1.7 6.1 0.00 0.00 0.00 39 1021.3
20260831174524 78 209 2.6 4.3 0.00 0.00 0.00 42 1021.3
20260831174024 78 215 2.6 5.2 0.00 0.00 0.00 42 1021.3
20260831173524 77 227 2.6 5.2 0.00 0.00 0.00 43 1021.3
20260831173024 77 232 2.6 5.2 0.00 0.00 0.00 44 1021.3
20260831172524 77 262 2.6 7.0 0.00 0.00 0.00 43 1021.4
20260831172024 77 214 2.6 7.0 0.00 0.00 0.00 43 1021.4
20260831171524 76 196 2.6 6.1 0.00 0.00 0.00 45 1021.3
20260831171024 75 194 2.6 7.8 0.00 0.00 0.00 49 1021.3
20260831170524 75 209 2.6 7.8 0.00 0.00 0.00 49 1021.3
20260831170024 74 199 1.7 4.3 0.00 0.00 0.00 50 1021.4
20260831165524 73 202 1.7 4.3 0.00 0.00 0.00 50 1021.4
20260831165024 73 207 1.7 6.1 0.00 0.00 0.00 50 1021.5
20260831164524 73 199 2.6 5.2 0.00 0.00 0.00 49 1021.4
20260831164024 73 209 2.6 5.2 0.00 0.00 0.00 49 1021.4
20260831163524 73 205 2.6 5.2 0.00 0.00 0.00 47 1021.4
20260831163024 73 229 1.7 5.2 0.00 0.00 0.00 49 1021.3
20260831162524 74 229 1.7 3.5 0.00 0.00 0.00 49 1021.3
20260831162024 74 231 1.7 3.5 0.00 0.00 0.00 48 1021.3
20260831161524 74 231 0.9 4.3 0.00 0.00 0.00 49 1021.2
20260831161024 74 231 1.7 4.3 0.00 0.00 0.00 50 1021.3
20260831160524 74 232 0.9 4.3 0.00 0.00 0.00 49 1021.2
20260831160024 74 234 0.9 5.2 0.00 0.00 0.00 50 1021.2
20260831155524 73 236 0.0 1.7 0.00 0.00 0.00 50 1021.2
20260831155024 73 236 0.0 0.0 0.00 0.00 0.00 49 1021.2
20260831154525 73 236 0.0 2.6 0.00 0.00 0.00 50 1021.3
20260831154024 73 236 0.0 0.0 0.00 0.00 0.00 50 1021.4
20260831153524 73 236 0.0 2.6 0.00 0.00 0.00 49 1021.5
20260831153024 73 236 0.0 1.7 0.00 0.00 0.00 48 1021.6
20260831152524 73 236 0.0 2.6 0.00 0.00 0.00 49 1021.7
20260831152024 72 236 0.0 0.0 0.00 0.00 0.00 49 1021.7
20260831151524 72 236 0.0 0.0 0.00 0.00 0.00 50 1021.6
20260831151025 72 236 0.0 0.0 0.00 0.00 0.00 52 1021.7
20260831150524 71 236 0.0 0.0 0.00 0.00 0.00 52 1021.9
20260831150024 71 236 0.0 3.5 0.00 0.00 0.00 51 1022.0
20260831145525 71 235 0.0 1.7 0.00 0.00 0.00 51 1022.1
20260831145025 71 235 0.0 0.0 0.00 0.00 0.00 52 1022.0
20260831144525 71 235 0.0 0.0 0.00 0.00 0.00 52 1022.0
20260831143633 70 235 0.0 0.0 0.00 0.00 0.00 53 1022.0
20260831143133 70 235 0.0 0.0 0.00 0.00 0.00 54 1022.1
20260831142633 69 235 0.0 0.0 0.00 0.00 0.00 53 1022.0
20260831142133 68 238 0.0 0.0 0.00 0.00 0.00 56 1022.1
20260831141633 68 238 0.0 0.0 0.00 0.00 0.00 56 1022.1
20260831141133 67 238 0.0 3.5 0.00 0.00 0.00 55 1022.0
20260831140633 67 190 0.0 0.0 0.00 0.00 0.00 57 1022.0
20260831140133 67 190 0.0 0.0 0.00 0.00 0.00 61 1022.0
20260831135633 66 190 0.0 0.0 0.00 0.00 0.00 61 1022.0
20260831135133 66 190 0.0 0.0 0.00 0.00 0.00 62 1022.0
20260831134633 65 190 0.0 0.0 0.00 0.00 0.00 61 1022.0
20260831134133 65 190 0.0 0.0 0.00 0.00 0.00 63 1022.0
20260831133633 64 191 0.0 0.0 0.00 0.00 0.00 63 1021.9
20260831133133 63 191 0.0 0.0 0.00 0.00 0.00 65 1021.8
20260831132633 62 191 0.0 0.0 0.00 0.00 0.00 66 1021.8
20260831132133 62 191 0.0 0.0 0.00 0.00 0.00 66 1021.8
20260831131633 62 191 0.0 0.0 0.00 0.00 0.00 67 1021.8
20260831131133 62 191 0.0 0.0 0.00 0.00 0.00 67 1021.8
20260831130633 61 191 0.0 0.0 0.00 0.00 0.00 67 1021.7
20260831130133 61 191 0.0 0.0 0.00 0.00 0.00 67 1021.7
20260831125633 61 191 0.0 0.0 0.00 0.00 0.00 67 1021.6
20260831125133 61 191 0.0 0.0 0.00 0.00 0.00 66 1021.6
20260831124633 61 191 0.0 0.0 0.00 0.00 0.00 66 1021.4
20260831124133 61 191 0.0 0.0 0.00 0.00 0.00 66 1021.6
20260831123633 62 191 0.0 0.0 0.00 0.00 0.00 65 1021.6
20260831123133 62 191 0.0 0.0 0.00 0.00 0.00 63 1021.6
20260831122633 63 191 0.0 0.0 0.00 0.04 0.00 62 1021.6
20260831122133 63 191 0.0 0.0 0.00 0.04 0.00 61 1021.6
20260831121633 64 191 0.0 0.0 0.00 0.04 0.00 61 1021.6
20260831121133 63 191 0.0 2.6 0.00 0.04 0.00 63 1021.6
20260831120633 62 189 0.0 2.6 0.00 0.04 0.00 65 1021.6
20260831120133 61 140 0.0 2.6 0.00 0.04 0.00 68 1021.6
20260831115633 59 103 0.0 1.7 0.00 0.04 0.00 72 1021.6
20260831115133 58 98 0.0 0.0 0.00 0.04 0.00 75 1021.7
20260831114633 58 98 0.0 0.0 0.00 0.04 0.00 75 1021.7
20260831114133 58 98 0.0 0.0 0.00 0.04 0.00 76 1021.8
20260831113633 58 98 0.0 0.0 0.00 0.04 0.00 76 1021.8
20260831113133 58 98 0.0 0.0 0.00 0.04 0.00 74 1021.9
20260831112633 58 98 0.0 0.0 0.00 0.04 0.00 75 1021.9
20260831112133 59 98 0.0 0.0 0.00 0.04 0.00 76 1021.9
20260831111633 59 98 0.0 0.0 0.00 0.04 0.00 76 1021.8
20260831111133 59 98 0.0 0.0 0.00 0.04 0.00 75 1021.9
20260831110633 59 98 0.0 0.0 0.00 0.04 0.00 75 1021.9
20260831110133 59 98 0.0 0.0 0.00 0.04 0.00 73 1021.9
20260831105633 58 98 0.0 0.0 0.00 0.04 0.00 73 1021.8
20260831105133 58 98 0.0 0.0 0.00 0.04 0.00 75 1021.7
20260831104633 58 98 0.0 0.0 0.00 0.04 0.00 75 1021.7
20260831104133 58 98 0.0 0.0 0.00 0.04 0.00 74 1021.7
20260831103633 58 98 0.0 0.0 0.00 0.04 0.00 75 1021.7
20260831103134 58 98 0.0 0.0 0.00 0.04 0.00 74 1021.7
20260831102633 58 98 0.0 0.0 0.00 0.04 0.00 74 1021.6
20260831102133 59 98 0.0 0.0 0.00 0.04 0.00 72 1021.7
20260831101633 59 98 0.0 0.0 0.00 0.04 0.00 72 1021.7
20260831101133 59 98 0.0 0.0 0.00 0.04 0.00 71 1021.7
20260831100634 59 98 0.0 0.0 0.00 0.04 0.00 71 1021.5
20260831100134 60 98 0.0 0.0 0.00 0.04 0.00 71 1021.4
20260831095634 60 98 0.0 0.0 0.00 0.04 0.00 71 1021.4
20260831095134 60 98 0.0 0.0 0.00 0.04 0.00 70 1021.3
20260831094634 60 98 0.0 0.0 0.00 0.04 0.00 70 1021.3
20260831094134 60 98 0.0 0.0 0.00 0.04 0.00 69 1021.3
20260831093634 60 98 0.0 0.0 0.00 0.04 0.00 69 1021.4
20260831093134 60 98 0.0 0.0 0.00 0.04 0.00 69 1021.4
20260831092634 61 98 0.0 0.0 0.00 0.04 0.00 69 1021.3
20260831092134 61 98 0.0 0.0 0.00 0.04 0.00 69 1021.3
20260831091634 61 98 0.0 0.0 0.00 0.04 0.00 69 1021.3
20260831091134 61 98 0.0 0.0 0.00 0.04 0.00 69 1021.2
20260831090634 61 98 0.0 0.0 0.00 0.04 0.00 68 1021.2
20260831090134 61 98 0.0 0.0 0.00 0.04 0.00 68 1021.1
20260831085634 61 98 0.0 0.0 0.00 0.04 0.00 67 1021.2
20260831085134 61 98 0.0 0.0 0.00 0.04 0.00 68 1021.1
20260831084634 61 98 0.0 0.0 0.00 0.04 0.00 68 1021.1
20260831084134 62 98 0.0 0.0 0.00 0.04 0.00 68 1021.0
20260831083636 61 98 0.0 0.0 0.00 0.04 0.00 68 1021.2
20260831083134 62 98 0.0 0.0 0.00 0.04 0.00 68 1021.1
20260831082634 61 98 0.0 0.0 0.00 0.04 0.00 68 1021.1
20260831082134 61 98 0.0 0.0 0.00 0.04 0.00 68 1021.1
20260831081634 61 98 0.0 0.0 0.00 0.04 0.00 69 1021.2
20260831081134 61 98 0.0 0.0 0.00 0.04 0.00 69 1021.2
20260831080634 61 98 0.0 0.0 0.00 0.04 0.00 69 1021.2
20260831080134 61 98 0.0 0.0 0.00 0.04 0.00 69 1021.2
20260831075134 61 98 0.0 0.0 0.00 0.04 0.00 68 1021.2
20260831074634 61 98 0.0 0.0 0.00 0.04 0.00 68 1021.3
20260831074134 62 98 0.0 0.0 0.00 0.04 0.00 68 1021.3
20260831073634 62 98 0.0 0.0 0.00 0.04 0.00 68 1021.3
20260831073134 62 98 0.0 0.0 0.00 0.04 0.00 67 1021.3
20260831072634 62 98 0.0 0.0 0.00 0.04 0.00 67 1021.4
20260831072134 62 98 0.0 0.0 0.00 0.04 0.00 68 1021.5
20260831071634 62 98 0.0 0.0 0.00 0.04 0.00 67 1021.5
20260831071134 62 98 0.0 0.0 0.00 0.04 0.00 67 1021.4
20260831070634 62 98 0.0 0.0 0.00 0.04 0.00 66 1021.5
20260831070134 62 98 0.0 0.0 0.00 0.04 0.00 66 1021.4
20260831065634 62 98 0.0 0.0 0.00 0.04 0.00 66 1021.4
20260831065134 62 98 0.0 0.0 0.00 0.04 0.00 66 1021.4
20260831064634 63 98 0.0 0.0 0.00 0.04 0.00 65 1021.4
20260831064134 63 98 0.0 0.0 0.00 0.04 0.00 64 1021.3
20260831063634 63 98 0.0 0.0 0.00 0.04 0.00 64 1021.3
20260831063134 63 98 0.0 0.0 0.00 0.04 0.00 64 1021.3
20260831062634 63 98 0.0 0.0 0.00 0.04 0.00 64 1021.3
20260831062134 63 98 0.0 0.0 0.00 0.04 0.00 64 1021.3
20260831061634 63 98 0.0 0.0 0.00 0.04 0.00 64 1021.4
20260831061134 63 98 0.0 0.0 0.00 0.04 0.00 64 1021.3
20260831060634 63 98 0.0 0.0 0.00 0.04 0.00 63 1021.3
20260831060134 63 98 0.0 0.0 0.00 0.04 0.00 63 1021.4
20260831055634 63 98 0.0 0.0 0.00 0.04 0.04 65 1021.4
20260831055134 63 98 0.0 0.0 0.00 0.04 0.04 65 1021.3
20260831054634 63 98 0.0 0.0 0.00 0.04 0.04 65 1021.4
20260831054134 63 98 0.0 0.0 0.00 0.04 0.04 66 1021.4
20260831053634 63 98 0.0 0.0 0.00 0.04 0.04 66 1021.4
20260831053134 63 98 0.0 0.0 0.00 0.04 0.04 67 1021.4
20260831052634 63 98 0.0 0.0 0.00 0.05 0.04 67 1021.3
20260831052134 63 98 0.0 0.0 0.00 0.05 0.04 67 1021.4
20260831051634 63 98 0.0 0.0 0.00 0.05 0.04 66 1021.4
20260831051134 64 98 0.0 0.0 0.00 0.05 0.04 66 1021.4
20260831050634 64 98 0.0 0.0 0.00 0.05 0.04 66 1021.4
20260831050134 64 98 0.0 0.0 0.00 0.05 0.04 66 1021.4
20260831045634 65 98 0.0 0.0 0.00 0.05 0.04 65 1021.3
20260831045134 65 98 0.0 0.0 0.00 0.05 0.04 64 1021.2
20260831044634 65 98 0.0 0.0 0.00 0.05 0.04 64 1021.3
20260831044134 65 98 0.0 0.0 0.00 0.05 0.04 63 1021.2
20260831043634 65 98 0.0 0.0 0.00 0.05 0.04 64 1021.1
20260831043134 65 98 0.0 0.0 0.00 0.05 0.04 64 1021.0
20260831042634 65 98 0.0 0.0 0.00 0.13 0.04 64 1021.0
20260831042134 65 98 0.0 0.0 0.00 0.13 0.04 64 1021.0
20260831041634 65 98 0.0 0.0 0.00 0.13 0.04 64 1021.0
20260831041134 65 98 0.0 0.0 0.00 0.13 0.04 64 1021.0
20260831040634 65 98 0.0 0.0 0.00 0.13 0.04 63 1021.1
20260831040134 65 98 0.0 0.0 0.00 0.13 0.04 63 1021.1
20260831035634 65 98 0.0 0.0 0.00 0.13 0.04 63 1021.1
20260831035134 65 98 0.0 0.0 0.00 0.13 0.04 63 1020.9
20260831034634 66 98 0.0 0.0 0.00 0.13 0.04 63 1020.9
20260831034134 66 98 0.0 0.0 0.00 0.13 0.04 63 1020.9
20260831033634 66 98 0.0 0.0 0.00 0.13 0.04 62 1020.9
20260831033134 66 98 0.0 0.0 0.00 0.13 0.04 62 1020.9
20260831032634 66 98 0.0 0.0 0.00 0.15 0.04 63 1020.8
20260831032134 66 98 0.0 0.0 0.00 0.15 0.04 63 1020.8
20260831031634 66 98 0.0 0.0 0.00 0.15 0.04 63 1020.9
20260831031134 66 98 0.0 0.0 0.00 0.15 0.04 63 1020.9
20260831030634 66 98 0.0 0.0 0.00 0.15 0.04 63 1020.8
20260831030134 66 98 0.0 0.0 0.00 0.15 0.04 63 1020.7
20260831025634 66 98 0.0 0.0 0.00 0.15 0.04 62 1020.7
20260831025134 67 98 0.0 0.0 0.00 0.15 0.04 62 1020.6
20260831024634 67 98 0.0 0.0 0.00 0.15 0.04 62 1020.7
20260831024134 67 98 0.0 0.0 0.00 0.15 0.04 61 1020.6
20260831023634 68 98 0.0 0.0 0.00 0.15 0.04 61 1020.5
20260831023134 68 98 0.0 0.0 0.00 0.15 0.04 61 1020.6
20260831022634 68 98 0.0 0.0 0.00 0.15 0.04 60 1020.5
20260831022134 69 98 0.0 0.0 0.00 0.15 0.04 60 1020.6
20260831021634 69 98 0.0 0.0 0.00 0.15 0.04 59 1020.5
20260831021134 70 98 0.0 0.0 0.00 0.15 0.04 58 1020.5
20260831020634 70 98 0.0 0.0 0.00 0.15 0.04 57 1020.5
20260831020134 71 98 0.0 0.0 0.00 0.15 0.04 56 1020.4
20260831015634 71 98 0.0 0.0 0.00 0.15 0.04 55 1020.3
20260831015134 71 98 0.0 0.0 0.00 0.15 0.04 54 1020.4
20260831014634 71 98 0.0 0.0 0.00 0.15 0.04 52 1020.4
20260831014134 72 98 0.0 0.0 0.00 0.15 0.04 52 1020.4
20260831013634 72 98 0.0 0.0 0.00 0.15 0.04 52 1020.3
20260831013134 72 98 0.0 0.0 0.00 0.15 0.04 52 1020.4
20260831012634 72 98 0.0 0.0 0.00 0.15 0.04 51 1020.3
20260831012134 73 98 0.0 0.0 0.00 0.15 0.04 52 1020.4
20260831011634 73 98 0.0 0.0 0.00 0.15 0.04 51 1020.4
20260831011134 73 98 0.0 0.0 0.00 0.15 0.04 50 1020.4
20260831010634 73 98 0.0 0.0 0.00 0.15 0.04 51 1020.4
20260831010134 74 98 0.0 2.6 0.00 0.15 0.04 50 1020.4
20260831005634 74 98 0.0 2.6 0.00 0.15 0.04 51 1020.4
20260831005134 74 99 0.0 0.0 0.00 0.15 0.04 50 1020.4
20260831004634 74 99 0.0 2.6 0.00 0.15 0.04 49 1020.4
20260831004134 74 105 0.0 2.6 0.00 0.15 0.04 50 1020.5
20260831003634 75 105 0.0 1.7 0.00 0.15 0.04 49 1020.5
20260831003134 75 105 0.0 2.6 0.00 0.15 0.04 49 1020.5
20260831002634 75 105 0.0 0.0 0.00 0.25 0.04 49 1020.4
20260831002134 75 105 0.0 6.1 0.00 0.25 0.04 49 1020.5
20260831001634 75 106 0.0 0.9 0.00 0.25 0.04 47 1020.5
20260831001134 75 106 0.0 0.0 0.00 0.25 0.04 47 1020.5
20260831000635 75 106 0.0 3.5 0.00 0.25 0.04 47 1020.5
20260831000134 75 107 0.0 2.6 0.00 0.25 0.04 47 1020.6
20260830235634 75 107 0.0 0.0 0.00 0.25 0.04 46 1020.4
20260830235135 75 107 0.0 0.0 0.00 0.25 0.04 46 1020.4
20260830234634 75 107 0.0 0.9 0.00 0.25 0.04 46 1020.5
20260830234135 76 107 0.0 1.7 0.00 0.25 0.04 46 1020.5
20260830233635 76 107 0.0 4.3 0.00 0.25 0.04 45 1020.5
20260830233135 76 121 0.0 3.5 0.00 0.25 0.04 45 1020.7
20260830232635 76 141 0.0 0.0 0.00 0.25 0.04 47 1020.7
20260830232135 76 141 0.0 2.6 0.00 0.25 0.04 48 1020.7
20260830231635 76 146 0.0 0.0 0.00 0.25 0.04 50 1020.7